loading
|

TITAN 3C TRANSTAGE DEB, 1959

Orbit data source: Space-Track

TITAN 3C TRANSTAGE DEB, 1959 is space debris in LEO originally from a launch on Fri, 15 Oct 1965 UTC launched from the Air Force Eastern Test Range (AFETR). Debris objects in space refer to the collection of defunct objects orbiting the Earth. Examples of debris include non-operational satellites, rocket bodies, and fragments generated from explosions, collisions, or faulty payload assembly.

Loading next visibility...
Loading greatness...
TITAN 3C TRANSTAGE DEB details
Identifier
1959, 1965-082GU
Orbit
LEO
Last TLE update1 day ago
Origin
Flag of USUSAF SSD (US)
ManufacturerUnknown
MissionSpacecraft
Bus & MotorUnknown bus, Unknown motor
MassUnknown
Launch date (UTC)
1965-10-15 (59 years ago)
Launch vehicleUnknown
Launch site
Air Force Eastern Test Range (AFETR)
Object type
Payload
Rocket body
Debris
Shape & HBRUnknown
Radar Cross SectionSmall (<0.1 m²)

Expand to show TLE details & history

TLE from 1 day ago
0 TITAN 3C TRANSTAGE DEB
1  1959U 65082GU  24280.55751140  .00003031  00000-0  62547-3 0  9993
2  1959  31.7905  61.6490 0063422  31.6414 328.8015 14.57749969123399
Epoch: 2024-10-06T13:22Z
Definitive object data (Epoch: 2024-10-06T13:22:48.984Z)
Latitude-0.00002°
Longitude-154.75289°
Altitude660.754 km
Speed7.55 km/s
True Right ascension04h 06m 35s
True Declination0° 00' 00"
Sunlit
Object was in full shadow at TLE epoch
Predictive object data (real-time)
Latitude-24.42002°
Longitude151.67234°
Altitude707.623 km
Speed7.502 km/s
Apparent Right ascension23h 57m 45s
Apparent Declination-31° 59' 02"
Sunlit
Object is in full shadow
Predictive observer data (real-time)
Local Sidereal Time11:12:06
Azimuth307.169° NW
Elevation-77.842°
Doppler factor1
Orbital elements
Apogee749.003 km
Perigee659.169 km
Semi-major axis7,082.223 km
Eccentricity0.0063422
Inclination31.7905°
RAAN61.649°
Arg. of periapsis31.6414°
True anomaly328.42247°
Mean anomaly328.8015°
Eccentric anomaly328.61224°
Mean motion3.64157 °/min
BSTAR0.00062547
Period98.86 mins
No data available

TITAN 3C TRANSTAGE DEB Visibility forecast

Observer location: 39.9160978°, -105.1181434

TITAN 3C TRANSTAGE DEB is not visible in the next 10 days
Span
Click to sort rows by Start time (UTC) header in descending order
Start Az.
Max El. time (UTC)
Max El. Az.
Max El.
End time (UTC)
End Az.